Location: Pasadena, ca
(34.1243°N, 118.1037°W)
Time: 10:01:41
(UTC-07:00)

Envisat - Visible Passes

Search period start: 23 May 2018 00:00
Search period end: 02 June 2018 00:00
Orbit: 764 x 766 km, 98.2° (Epoch: 23 May)

Date Brightness Start Highest point End Pass type
(mag) Time Alt. Az. Time Alt. Az. Time Alt. Az.
23 May 3.8 20:37:39 10° S 20:42:36 53° W 20:47:34 10° NNW visible
24 May 5.8 21:43:35 10° WSW 21:45:16 12° W 21:46:58 10° WNW visible
25 May 4.9 21:03:56 10° SSW 21:08:15 29° W 21:12:38 10° NW visible
26 May 3.3 20:26:23 10° S 20:31:26 70° WSW 20:36:30 10° NNW visible
27 May 5.6 21:31:04 10° SW 21:34:01 15° W 21:36:58 10° WNW visible
28 May 4.4 20:52:24 10° SSW 20:57:03 37° W 21:01:45 10° NNW visible
30 May 5.4 21:19:06 10° SW 21:22:47 20° W 21:26:28 10° NW visible
31 May 4.0 20:41:00 10° S 20:45:52 48° W 20:50:47 10° NNW visible
01 Jun 6.0 21:48:03 10° W 21:48:35 10° W 21:49:07 10° W visible
